TimeCDT,TemperatureF,Dew PointF,Humidity,Sea Level PressureIn,VisibilityMPH,Wind Direction,Wind SpeedMPH,Gust SpeedMPH,PrecipitationIn,Events,Conditions,WindDirDegrees,DateUTC
12:16 AM,51.8,46.4,82,29.80,8.0,NNE,12.7,-,N/A,,Overcast,30,2011-10-26 05:16:00
12:54 AM,51.1,46.9,86,29.83,8.0,NNE,13.8,-,N/A,,Overcast,30,2011-10-26 05:54:00
1:54 AM,50.0,45.0,83,29.83,10.0,NNE,16.1,-,N/A,,Overcast,30,2011-10-26 06:54:00
2:54 AM,50.0,44.1,80,29.84,8.0,North,15.0,-,N/A,,Overcast,10,2011-10-26 07:54:00
3:54 AM,48.0,43.0,83,29.86,10.0,NNE,16.1,-,N/A,,Overcast,20,2011-10-26 08:54:00
4:54 AM,48.0,43.0,83,29.86,10.0,NNE,13.8,-,N/A,,Overcast,30,2011-10-26 09:54:00
5:54 AM,48.2,42.8,82,29.91,10.0,North,12.7,-,N/A,,Overcast,10,2011-10-26 10:54:00
6:54 AM,48.0,43.0,83,29.90,10.0,NNE,17.3,20.7,N/A,,Overcast,20,2011-10-26 11:54:00
7:54 AM,46.9,42.1,83,29.94,10.0,North,10.4,-,N/A,,Overcast,10,2011-10-26 12:54:00
8:54 AM,46.9,42.1,83,29.95,10.0,North,13.8,-,N/A,,Overcast,10,2011-10-26 13:54:00
9:18 AM,46.4,42.8,87,29.95,10.0,NNE,13.8,-,N/A,,Overcast,20,2011-10-26 14:18:00
9:54 AM,46.9,42.1,83,29.96,10.0,NNE,16.1,-,N/A,,Overcast,30,2011-10-26 14:54:00
10:06 AM,46.4,41.0,81,29.97,10.0,NNE,16.1,20.7,N/A,,Overcast,30,2011-10-26 15:06:00
10:36 AM,46.4,41.0,81,29.99,10.0,North,12.7,-,N/A,,Overcast,10,2011-10-26 15:36:00
10:54 AM,46.0,41.0,83,30.00,10.0,North,13.8,-,N/A,,Overcast,360,2011-10-26 15:54:00
11:32 AM,46.4,41.0,81,29.97,10.0,North,13.8,-,N/A,,Overcast,10,2011-10-26 16:32:00
11:54 AM,48.0,41.0,77,29.99,10.0,North,9.2,-,N/A,,Overcast,10,2011-10-26 16:54:00
12:06 PM,48.2,39.2,71,29.97,10.0,North,9.2,-,N/A,,Overcast,10,2011-10-26 17:06:00
12:54 PM,48.9,41.0,74,30.00,10.0,NNW,11.5,-,N/A,,Overcast,340,2011-10-26 17:54:00
1:54 PM,46.4,39.2,76,29.99,10.0,NNW,13.8,-,N/A,,Overcast,340,2011-10-26 18:54:00
2:50 PM,46.4,39.2,76,29.96,10.0,North,15.0,-,N/A,,Overcast,10,2011-10-26 19:50:00
2:54 PM,46.9,39.0,74,29.96,10.0,North,15.0,-,N/A,,Overcast,10,2011-10-26 19:54:00
3:54 PM,46.9,39.0,74,29.99,10.0,North,13.8,-,N/A,,Overcast,10,2011-10-26 20:54:00
4:54 PM,46.4,37.4,71,29.98,10.0,North,13.8,-,N/A,,Overcast,10,2011-10-26 21:54:00
5:46 PM,46.4,37.4,71,29.99,10.0,North,12.7,-,N/A,,Overcast,10,2011-10-26 22:46:00
5:54 PM,46.0,37.9,73,30.01,10.0,North,11.5,-,N/A,,Overcast,10,2011-10-26 22:54:00
6:54 PM,46.4,37.4,71,30.00,10.0,NNE,10.4,-,N/A,,Overcast,20,2011-10-26 23:54:00
7:54 PM,46.0,37.9,73,30.01,10.0,North,4.6,-,N/A,,Overcast,350,2011-10-27 00:54:00
8:54 PM,44.1,37.9,79,30.02,10.0,North,4.6,-,N/A,,Overcast,350,2011-10-27 01:54:00
9:54 PM,44.1,37.9,79,30.02,10.0,NNW,5.8,-,N/A,,Overcast,340,2011-10-27 02:54:00
10:54 PM,44.6,37.4,76,30.02,10.0,NNW,5.8,-,N/A,,Overcast,340,2011-10-27 03:54:00
11:54 PM,42.8,37.4,81,30.00,10.0,North,4.6,-,N/A,,Overcast,350,2011-10-27 04:54:00